Meath Environmental Platform

Observations for Trim Patrick St

Time AQI Temp °C Hum % Pres Pa CO μg/m³ H₂S μg/m³ NO μg/m³ NO₂ μg/m³ O₃ μg/m³ SO₂ μg/m³ PM1 μg/m³ PM2.5 μg/m³ PM10 μg/m³
Wednesday 5 August 2026
21:14 2 15.9 63 75,133 0.03 4.37 2.83 12.3 62.53 0 2.86 6.34 6.98
21:13 2 16 62 75,104 0.02 5.15 2.8 13.93 54.13 0 2 6.36 7
21:12 2 16 62 75,074 0.01 4.53 2.81 12.73 58.7 0 2 6.36 7
21:11 2 16 62 75,041 0 4.87 2.8 10.41 62.04 0 2 6.37 7.01
21:10 2 16.1 62 75,011 0 4.95 2.79 11.15 61.35 0 2 6.36 7
21:09 2 16.1 62 74,980 0 4.84 2.78 11.06 61.73 0 2 6.37 7.01
21:07 2 16.2 62 74,925 0 4.37 2.77 9.81 65.22 0 2 6.39 7.03
21:06 2 16.2 62 74,901 0 5.1 2.75 9.37 61.4 0 2 5.66 6.22
21:05 2 16.2 62 74,864 0 5 2.6 10.56 61.44 0 2 7.14 7.85
21:04 2 16.3 62 74,821 0 4.29 2.68 9.71 64.95 0 2 6.4 7.04
21:02 2 16.3 62 74,750 0 4.68 2.41 9.54 63.13 0 2 7.17 7.88
21:01 2 16.3 62 74,721 0 4.53 2.5 10.93 61.61 0 2.86 7.16 7.88
21:00 2 16.4 61 74,675 0 4.37 2.57 12.38 60.78 0 2.86 7.92 8.71
20:56 2 16.6 61 74,573 0 4.27 2.41 11.76 60.94 0 3.71 7.22 7.94
20:55 2 16.6 61 74,526 0 3.74 2.39 9.04 62.14 0 2 6.49 7.13
20:54 2 16.6 60 74,475 0 3.59 2.35 9.02 63.17 0 2.86 7.23 7.96
20:53 2 16.7 60 74,416 0 3.43 2.37 9.97 60.87 0 2 6.51 7.16
20:52 2 16.7 60 74,355 0 3.82 2.47 8.91 62.39 0 2 5.77 6.35
20:51 2 16.8 60 74,286 0 4.21 2.43 12.54 59.91 0 2 5.78 6.36
20:50 2 16.8 60 74,200 0 3.77 2.51 9.83 57.05 0 2 5.8 6.38